Location: Lake Arresoe
(56.0000°N, 12.5000°E)
Time: 08:06:27
(UTC+02:00)

Okean 3 - Pass Details

Date: 22 August 2020
Orbit: 577 x 600 km, 82.5° (Epoch: 21 September)

Event Time Altitude Azimuth Distance (km) Brightness Sun altitude
Rises 23:17:42 0° 336° (NNW) 2,864 8.6 -18.5°
Reaches altitude 10° 23:20:36 10° 316° (NW) 1,956 7.3 -18.7°
Maximum altitude 23:23:16 16° 278° (W) 1,584 6.1 -18.9°
Drops below altitude 10° 23:25:55 10° 239° (WSW) 1,946 6.1 -19.0°
Enters shadow 23:27:32 - 226° (SW) 2,415 6.4 -19.1°
